Weather History for CWHT - November, 2012

Change the Weather History Date:

Wednesday, November 21, 2012

  Actual Average Record
Temperature  
Mean Temperature -14 °F -  
Max Temperature -4 °F - - ()
Min Temperature -25 °F - - ()
Degree Days  
Heating Degree Days 80    
Moisture  
Dew Point -24 °F    
Average Humidity 69    
Maximum Humidity 76    
Minimum Humidity 48    
Precipitation  
Precipitation 0.00 in - - ()
Sea Level Pressure  
Sea Level Pressure 30.07 in    
Wind  
Wind Speed 1 mph ()    
Max Wind Speed 2 mph    
Max Gust Speed -    
T = Trace of Precipitation, MM = Missing Value Source: Averaged Metar Reports

Daily Weather History Graph

Daily Weather History Graph

Search for Another Location

Airport or City:

Trip Planner

Search our weather history database for the weather conditions in past years. The results will help you decide how hot, cold, wet, or windy it might be!

Date:

Astronomy

Nov. 21, 2012 Rise Set
Actual Time 9:30 AM PST 4:21 PM PST
Civil Twilight 8:37 AM PST 5:14 PM PST
Nautical Twilight 7:42 AM PST 6:09 PM PST
Astronomical Twilight 6:51 AM PST 7:00 PM PST
Moon 2:14 PM PST (11/21) 1:16 AM PST (11/21)
Length of Visible Light 8h 37m
Length of Day
6h 51m
Waxing Gibbous, 63% of the Moon is Illuminated
Nov 21
Waxing Gibbous
Nov 28
Full
Dec 6
Last Quarter
Dec 13
New
Dec 19
First Quarter

Hourly Weather History & Observations

Time (PST) Temp. Dew Point Humidity Pressure Visibility Wind Dir Wind Speed Gust Speed Precip Events Conditions
12:00 AM -18.9 °F -25.8 °F 71% 29.98 in - NNE 1.2 mph - N/A   Unknown
1:00 AM -21.6 °F -28.5 °F 71% 29.98 in - NE 1.2 mph - N/A   Unknown
2:00 AM -22.0 °F -28.8 °F 71% 29.98 in - ENE 2.3 mph - N/A   Unknown
3:00 AM -23.1 °F -30.3 °F 69% 29.99 in - ENE 1.2 mph - N/A   Unknown
4:00 AM -22 °F -30 °F 48% 29.99 in - North 2.3 mph - -  
4:00 AM -22.0 °F -30.3 °F 65% 29.99 in - North 2.3 mph - N/A   Unknown
5:00 AM -23.4 °F -31.5 °F 66% 30.00 in - NNE 2.3 mph - N/A   Unknown
6:00 AM -23.8 °F -31.9 °F 66% 30.01 in - North 1.2 mph - N/A   Unknown
7:00 AM -25.2 °F -33.0 °F 67% 30.02 in - NNE 1.2 mph - N/A   Unknown
8:00 AM -22.7 °F -29.6 °F 70% 30.04 in - NE 1.2 mph - N/A   Unknown
9:00 AM -18.2 °F -24.9 °F 72% 30.04 in - ENE 1.2 mph - N/A   Unknown
10:00 AM -16 °F -22 °F 60% 30.04 in - Calm Calm - -  
10:00 AM -15.5 °F -22.2 °F 72% 30.04 in - Calm Calm - N/A   Unknown
11:00 AM -13.5 °F -20.2 °F 72% 30.05 in - South 2.3 mph - N/A   Unknown
12:00 PM -11.2 °F -17.9 °F 72% 30.05 in - East 1.2 mph - N/A   Unknown
1:00 PM -8.1 °F -15.3 °F 71% 30.05 in - Calm Calm - N/A   Unknown
2:00 PM -5.8 °F -12.8 °F 72% 30.06 in - SSW 1.2 mph - N/A   Unknown
3:00 PM -4.4 °F -11.7 °F 71% 30.06 in - SSW 1.2 mph - N/A   Unknown
4:00 PM -6 °F -12 °F 63% 30.08 in - Calm Calm - -  
4:00 PM -5.6 °F -12.1 °F 74% 30.08 in - Calm Calm - N/A   Unknown
5:00 PM -9.9 °F -15.5 °F 76% 30.10 in - East 1.2 mph - N/A   Unknown
6:00 PM -12.8 °F -19.1 °F 73% 30.12 in - NE 1.2 mph - N/A   Unknown
7:00 PM -16.2 °F -22.2 °F 74% 30.15 in - NE 1.2 mph - N/A   Unknown
8:00 PM -18.6 °F -25.4 °F 71% 30.17 in - ENE 1.2 mph - N/A   Unknown
9:00 PM -19.5 °F -26.7 °F 70% 30.18 in - NE 1.2 mph - N/A   Unknown
10:00 PM -21 °F -28 °F 55% 30.19 in - NE 1.2 mph - -  
10:00 PM -21.1 °F -27.9 °F 71% 30.19 in - NE 1.2 mph - N/A   Unknown
11:00 PM -21.8 °F -29.6 °F 67% 30.21 in - NE 2.3 mph - N/A   Unknown